Theta_e
299 300 300 300 300 299 299 299 299 298 298 297 297 297 297 296 297 297 297 297 297 297 297 296 297 298 297 300 301 302 301 301 296 298 300 300 297 296 297 297 297 297 298
294 294 293 294 294 293 292 293 293 293 293 293 293 293 293 293 293 292 291 292 291 291 292 292 292 295 292 294 296 296 296 297 296 293 295 296 296 297 296 295 295 295 295
292 291 291 290 290 290 290 291 291 291 290 290 290 290 289 289 288 288 289 289 289 289 289 289 289 290 289 291 291 291 292 293 293 291 290 293 294 295 293 291 290 292 292
291 290 289 289 289 289 289 289 288 288 288 288 287 286 286 287 286 285 286 287 287 288 288 288 288 287 286 288 288 287 288 288 288 289 289 289 290 291 286 287 288 291 291
290 289 288 288 288 287 287 287 286 285 285 285 285 285 285 286 286 286 285 285 285 285 285 286 286 286 287 289 288 287 287 286 286 285 285 286 286 287 286 289 288 289 290
288 287 287 286 285 285 285 285 285 284 284 284 284 284 284 284 289 291 289 284 284 284 283 284 284 284 286 288 288 289 288 285 285 284 283 283 284 285 286 286 286 285 283
284 284 284 284 283 283 284 283 283 283 283 283 283 283 283 283 288 289 289 284 283 283 283 283 285 285 286 285 287 288 287 288 288 286 284 284 284 285 285 285 285 285 285
283 282 283 282 282 282 282 282 282 282 281 282 281 281 280 282 287 288 288 283 282 283 284 284 284 284 285 284 285 284 285 285 285 285 285 285 287 287 287 286 286 285 286
282 282 281 280 279 280 279 280 281 279 279 278 280 277 276 279 286 287 286 285 284 284 284 285 284 284 285 286 284 283 283 284 287 288 289 290 290 290 289 286 283 282 281
280 281 280 280 278 277 279 279 279 277 279 279 279 277 276 276 284 286 286 284 283 283 284 284 284 284 286 287 284 284 282 283 284 285 285 285 286 285 287 285 284 281 281
278 278 277 277 277 278 277 277 275 274 275 272 275 276 276 275 278 286 287 284 284 283 283 283 284 286 287 288 288 285 283 285 285 283 282 282 283 282 284 284 284 282 280
275 275 275 275 277 276 274 273 271 269 270 271 268 272 275 276 280 284 286 287 286 284 284 284 284 286 287 287 286 286 286 285 283 282 281 281 281 281 281 280 279 278 277
272 271 273 274 274 273 269 270 273 269 267 268 270 268 272 276 275 283 284 286 286 284 284 285 286 286 287 286 285 286 283 282 281 280 280 280 281 281 280 275 269 270 272
272 272 272 270 268 269 271 271 266 266 266 268 270 274 276 277 277 280 282 284 284 284 285 284 285 285 285 286 282 283 282 282 281 280 280 281 281 280 279 270 270 268 265
270 271 270 269 266 268 270 269 271 270 270 266 268 277 276 276 278 282 283 282 283 284 283 283 279 280 282 281 280 280 281 281 280 280 280 279 279 279 276 268 269 268 267
268 267 267 267 266 267 267 266 273 275 277 277 279 279 278 280 282 283 284 284 284 284 280 278 278 280 280 280 279 279 279 279 279 279 279 278 277 277 271 267 269 267 265
261 262 261 263 262 261 261 261 262 266 273 275 277 278 279 280 280 281 281 282 279 279 272 271 272 272 272 273 274 275 276 278 279 275 275 273 273 272 268 266 269 268 264
254 260 257 258 257 257 258 259 258 257 260 263 271 275 278 277 278 279 278 272 262 264 261 267 268 269 269 269 270 270 272 274 276 274 274 272 271 269 267 268 270 270 267
255 255 255 255 256 256 256 256 257 256 257 259 259 269 268 274 275 273 273 258 258 257 259 261 266 266 266 266 267 267 269 271 271 270 270 271 271 271 268 269 269 273 272
252 257 256 254 254 255 256 256 256 256 257 256 257 260 262 261 257 255 255 254 254 256 258 260 263 264 265 265 265 265 266 267 267 267 268 269 270 270 270 269 269 269 269
253 254 257 254 253 253 254 255 256 254 255 256 256 257 272 264 255 253 253 254 255 255 258 262 262 263 264 263 264 264 264 265 264 264 265 266 268 268 269 270 270 270 267
252 253 252 253 254 254 253 253 253 254 255 254 254 255 269 254 253 253 253 253 254 257 259 259 261 261 261 261 262 262 262 262 262 262 262 263 266 266 267 268 268 268 267
254 253 252 252 252 254 253 252 252 253 253 252 252 253 253 252 252 253 255 255 255 255 260 259 259 260 260 261 260 261 260 261 261 261 260 261 262 263 264 264 264 264 264
253 253 253 252 252 252 251 251 251 253 252 252 251 251 252 253 254 255 256 256 255 257 259 260 260 261 261 261 261 261 261 261 262 261 260 260 260 260 261 262 262 261 261
251 252 252 252 251 252 251 250 251 250 250 251 252 251 251 253 254 255 256 256 256 255 258 260 260 260 260 260 260 260 260 262 261 262 261 259 259 258 256 257 257 257 257
252 251 251 250 250 249 249 250 251 251 251 253 253 253 253 254 256 255 255 255 256 257 257 258 259 259 259 259 259 260 262 264 262 263 263 259 259 257 255 254 253 253 253
Wind_Speed
7 7 9 8 9 9 8 7 7 7 6 7 6 7 6 6 6 6 6 6 5 5 4 4 5 5 4 4 3 5 6 6 12 11 8 6 4 6 7 8 8 10 9
7 8 8 8 7 9 8 7 6 7 7 7 7 7 7 7 7 6 5 5 5 5 5 5 5 4 5 5 4 7 8 8 10 18 11 10 10 8 9 9 8 7 9
8 9 8 7 7 8 7 7 7 7 7 7 7 7 6 6 6 6 5 5 5 4 4 4 5 5 5 6 7 8 8 7 8 11 15 10 9 8 8 5 6 9 8
8 9 9 7 6 6 7 7 7 6 6 6 6 6 6 5 5 4 5 5 4 4 5 5 5 5 5 7 8 9 8 8 9 10 12 13 10 7 2 6 10 7 11
9 10 7 6 6 6 7 6 6 7 6 6 6 6 5 5 3 5 5 5 5 6 6 6 5 5 9 10 6 6 7 8 8 11 12 11 12 12 11 10 12 12 13
9 9 6 6 6 6 6 6 6 6 6 5 5 5 6 3 8 8 6 4 5 5 6 5 4 5 6 14 14 16 14 9 10 9 12 13 17 10 9 10 12 11 15
9 7 6 6 6 6 5 6 5 5 4 5 5 5 5 5 10 10 8 3 4 5 5 5 8 6 9 8 14 17 16 17 17 12 13 12 15 12 12 14 12 12 14
7 7 6 6 5 5 5 5 4 4 4 4 3 5 4 3 10 10 10 4 4 5 6 9 9 10 10 10 10 10 11 11 10 8 11 15 13 12 11 10 13 14 13
6 6 5 4 4 4 4 4 3 2 1 1 1 3 3 4 11 11 10 7 8 9 7 8 6 8 12 18 12 11 12 11 10 18 21 24 24 24 20 11 10 10 12
5 5 5 4 4 3 2 1 1 1 1 1 3 3 4 4 9 12 10 4 7 8 5 4 9 9 17 19 11 11 12 12 11 10 7 10 12 14 20 11 9 10 9
4 4 4 4 3 3 2 2 2 2 3 3 3 4 5 3 5 9 12 5 5 6 6 6 6 15 18 20 20 8 10 14 13 8 8 7 8 7 6 5 8 8 9
4 4 4 3 2 3 4 3 3 4 4 4 4 4 4 4 7 10 14 13 13 7 9 6 7 17 21 20 13 16 19 15 6 7 7 7 7 3 6 8 6 4 3
3 4 3 4 5 4 2 2 2 3 2 3 2 2 3 3 2 12 16 14 13 11 8 12 20 19 21 12 11 15 10 5 6 6 7 7 5 7 6 4 4 5 4
6 4 4 4 3 3 3 2 1 1 1 1 3 5 6 6 5 6 6 6 10 10 10 8 13 16 19 11 5 5 5 5 6 6 6 6 6 5 6 2 3 2 2
5 4 4 2 2 1 1 1 1 2 1 1 2 5 6 7 7 15 13 9 8 10 13 7 6 8 7 4 3 3 4 5 5 5 5 6 6 5 4 2 2 2 1
5 3 2 2 1 1 1 2 7 7 10 10 9 8 5 13 18 18 16 17 18 18 8 8 8 7 6 5 3 4 3 5 5 6 5 5 6 5 3 2 2 1 2
6 4 3 2 1 1 0 1 3 5 8 7 11 14 14 14 18 20 20 14 16 13 3 5 6 6 6 6 6 6 6 5 5 4 5 5 5 3 3 2 2 1 2
4 4 3 2 1 1 2 2 1 1 2 3 8 13 11 18 18 17 17 10 5 5 2 5 5 5 6 6 6 6 6 6 5 5 5 5 4 3 3 2 2 1 0
4 3 3 2 1 0 1 2 2 2 2 3 3 7 8 17 13 14 12 1 1 2 2 3 4 4 5 5 6 6 7 6 5 5 5 5 6 4 3 3 3 3 2
3 5 4 2 1 1 1 1 1 1 2 2 2 3 4 3 4 3 2 2 2 2 3 3 4 4 4 5 5 6 6 6 6 5 6 5 5 5 5 4 3 2 1
3 2 3 2 2 3 2 3 2 2 2 2 3 3 14 2 2 2 3 3 3 3 3 4 4 4 4 4 4 5 5 5 6 6 6 6 6 5 5 4 4 3 1
3 3 3 4 3 3 3 3 2 2 2 2 3 4 12 2 2 3 3 3 4 3 3 3 4 3 3 3 4 4 5 5 5 6 6 7 6 5 5 4 4 3 2
3 3 3 3 3 3 2 2 2 2 3 3 3 3 2 2 3 4 4 4 3 3 3 3 3 3 2 3 2 3 4 4 4 4 5 6 6 5 5 4 3 3 2
4 4 4 3 2 3 3 3 3 4 3 3 3 3 3 3 4 5 5 4 4 4 4 3 3 5 4 4 3 4 4 4 4 4 5 4 5 5 5 3 3 2 2
4 4 4 4 4 4 3 3 3 3 3 3 3 3 3 3 3 5 5 4 4 4 5 4 3 6 7 7 7 7 7 9 7 7 4 4 4 4 3 2 2 2 2
4 4 3 3 3 3 4 3 4 3 4 3 4 4 4 4 5 5 4 4 5 5 6 4 5 8 9 7 8 9 10 11 8 9 6 4 4 3 2 3 3 2 2
Wind_Direction
69 68 74 67 74 80 81 75 77 74 69 69 69 66 58 52 37 45 37 24 18 356 345 335 317 323 307 309 299 285 280 279 284 289 288 278 261 265 268 264 267 267 270
75 74 70 70 70 78 75 70 67 73 62 67 65 65 55 50 46 45 37 22 17 0 348 348 326 324 325 325 310 301 295 289 287 291 295 295 292 294 280 275 269 262 266
90 86 73 65 68 75 72 66 61 65 60 59 63 63 61 57 49 35 29 18 3 344 341 335 322 330 323 324 318 307 305 300 295 294 296 296 293 296 284 272 262 271 258
97 89 84 76 72 73 74 68 65 62 66 59 54 61 55 57 53 29 12 4 346 330 331 321 306 300 293 314 309 307 305 303 298 288 293 299 302 303 248 291 295 283 289
101 92 88 84 79 76 72 71 69 60 57 58 55 43 39 41 15 6 3 352 337 326 316 307 300 299 305 311 309 306 301 297 296 297 296 301 305 310 310 310 299 304 297
98 96 95 88 80 73 70 66 64 57 49 45 37 32 21 7 354 355 350 326 305 293 303 305 291 291 306 317 312 308 303 300 295 291 297 294 298 302 307 301 301 301 304
102 101 98 96 84 73 75 71 64 56 43 35 25 17 5 354 354 347 340 308 307 309 316 321 332 327 325 318 314 309 306 298 290 288 285 286 291 292 289 287 286 282 284
101 96 89 88 84 75 72 60 50 28 29 12 359 353 334 332 351 349 347 340 333 332 334 334 327 326 323 316 313 309 304 303 293 281 271 280 279 285 282 288 297 294 283
110 107 102 95 90 76 61 44 29 17 327 333 344 317 312 309 351 357 355 349 341 334 327 325 317 311 309 317 313 302 296 293 285 285 284 289 296 303 306 301 293 293 296
127 117 102 85 85 86 46 353 303 315 313 326 308 284 295 308 342 357 356 339 327 321 305 274 304 302 303 313 303 298 296 303 306 299 307 299 296 282 288 287 285 282 285
102 100 95 86 95 81 61 23 352 343 348 329 328 328 319 284 297 330 337 325 308 306 300 312 309 305 305 305 307 302 295 307 312 308 302 293 289 291 298 318 310 314 307
121 117 110 109 99 59 45 2 359 23 9 348 345 321 311 311 322 321 324 320 324 319 302 298 299 303 308 311 317 311 317 325 305 300 296 297 300 312 321 319 299 294 299
112 99 99 66 43 33 37 15 27 25 25 321 339 311 303 301 279 324 319 316 318 306 293 289 307 309 304 303 309 318 323 299 296 295 300 303 312 309 296 300 292 277 279
130 113 78 74 33 4 4 23 37 342 338 300 325 345 335 331 325 323 311 296 299 300 297 296 297 300 298 284 278 283 295 294 293 291 295 301 300 310 322 285 288 301 342
117 105 100 105 75 20 319 243 338 271 231 275 256 326 323 320 314 315 320 315 311 309 313 302 296 301 289 277 260 260 290 296 297 294 296 300 300 305 314 316 288 304 290
118 121 117 102 67 81 81 346 360 4 346 340 339 334 315 318 320 323 329 328 323 324 314 305 300 304 293 298 286 285 282 290 305 306 298 295 302 304 304 314 291 318 305
135 149 137 121 160 144 74 83 11 339 347 358 347 347 336 349 353 342 326 345 354 343 345 320 315 329 326 325 327 323 315 306 297 308 305 302 298 292 311 305 296 295 321
141 166 166 183 166 60 29 353 334 321 319 308 340 344 354 346 345 345 353 5 354 355 334 327 329 335 330 326 323 321 315 316 330 336 328 324 316 308 297 282 273 247 255
167 176 171 159 128 133 324 307 265 299 295 278 330 334 350 338 342 358 1 66 287 312 308 320 323 327 329 327 324 322 318 329 339 335 337 335 329 326 312 294 272 255 191
190 193 171 145 184 287 301 259 300 291 287 279 311 282 314 29 5 318 324 328 339 302 303 302 313 315 325 327 327 328 326 340 344 343 336 335 334 335 335 329 325 284 249
162 156 168 138 189 213 213 226 221 254 266 272 265 281 317 45 285 291 294 298 285 292 291 312 311 312 320 328 330 333 333 338 343 339 335 333 335 338 334 334 339 347 47
153 168 162 191 206 217 221 212 252 260 268 275 288 300 327 352 309 291 286 274 270 261 268 266 296 298 305 319 327 330 330 333 340 339 332 329 327 332 334 339 340 339 355
165 174 192 210 202 213 221 225 240 233 261 262 261 280 301 284 276 274 276 275 275 274 269 256 260 279 255 266 261 276 301 308 309 316 316 318 320 326 329 323 329 327 342
168 178 184 205 201 206 209 233 235 245 246 249 262 265 256 256 265 270 273 274 273 266 258 262 257 270 281 272 261 261 260 269 267 274 289 297 309 321 322 317 323 320 329
170 180 185 192 202 215 228 237 241 246 249 245 259 250 258 260 268 271 272 272 271 267 261 254 254 272 275 277 279 279 275 285 272 267 255 266 284 306 303 293 309 315 336
179 187 195 195 217 218 220 234 245 240 250 255 258 254 246 256 260 257 261 268 270 268 269 260 258 266 275 276 272 274 274 275 271 262 252 217 244 256 251 265 290 284 289